Overview Statistics Trail Chart Weather Telemetry Raw packets
 

This is the latest recevied weather packets stored in our database for station/object N5CSU. If no packets are shown the sender has not sent any weather packets the latest 10 day(s).

<< 36 37 38 39 40 41 42 >>
Time Temp. Humidity Pressure Rain* Wind** Luminosity Snow
1788371751 35° C 50% 1015.4 hPa 0 mm - 235 W/m² -
1788371447 34.44° C 51% 1015.3 hPa 0 mm - 511 W/m² -
1788371143 34.44° C 52% 1015.4 hPa 0 mm - 148 W/m² -
1788370850 34.44° C 52% 1015.4 hPa 0 mm - 154 W/m² -
1788370538 34.44° C 51% 1015.4 hPa 0 mm - 276 W/m² -
1788370233 34.44° C 54% 1015.7 hPa 0 mm - 21 W/m² -
1788369932 35° C 52% 1015.7 hPa 0 mm - 112 W/m² -
1788369628 34.44° C 52% 1015.7 hPa 0 mm - 309 W/m² -
1788369329 33.89° C 54% 1015.9 hPa 0 mm - 252 W/m² -
1788369019 33.89° C 57% 1015.8 hPa 0 mm - 110 W/m² -
1788368714 33.89° C 56% 1015.8 hPa 0 mm - 193 W/m² -
1788368410 33.33° C 58% 1016 hPa 0 mm - 87 W/m² -
1788368104 33.89° C 54% 1016.3 hPa 0 mm - 248 W/m² -
1788367804 33.89° C 57% 1016.3 hPa 0 mm - 294 W/m² -
1788367499 33.33° C 57% 1016.4 hPa 0 mm - 256 W/m² -
1788367197 34.44° C 55% 1016.5 hPa 0 mm - 497 W/m² -
1788366893 33.89° C 57% 1016.4 hPa 0 mm - 505 W/m² -
1788366591 33.33° C 57% 1016.6 hPa 0 mm - 496 W/m² -
1788366287 33.89° C 55% 1016.7 hPa 0 mm - 420 W/m² -
1788365986 34.44° C 54% 1016.7 hPa 0 mm - 274 W/m² -
1788365682 33.33° C 57% 1016.7 hPa 0 mm - 485 W/m² -
1788365377 33.89° C 56% 1016.6 hPa 0 mm - 475 W/m² -
1788365073 32.78° C 59% 1016.6 hPa 0 mm - 462 W/m² -
1788364771 32.22° C 63% 1016.5 hPa 0 mm - 450 W/m² -
1788364466 31.67° C 62% 1016.6 hPa 0 mm - 440 W/m² -

* Rain latest hour (hover to see other rain measurements)
** Current wind speed in m/s (hover to see current wind gust speed)